![]() |
EMODnet Physics ERDDAP
Easier access to scientific data |
log in|
Brought to you by EMODnet Physics |
| Dataset Title: | NDBC - Collection of dew point temperature (DEWT) TimeSeries - IN SITU MultiPointTimeSeriesObservation
|
| Institution: | NDBC (Dataset ID: TS_DEWT_NDBC) |
| Information: | Summary
| License
| FGDC
| ISO 19115
| Metadata
| Background
| Subset
| Data Access Form
| Make a graph
|
| Name | Last modified | Size | Description | |
|---|---|---|---|---|
| Parent Directory | - | - | ||
| RCMC1_TS_DEWT_012008.nc | 27-Oct-2024 19:27 | 458215 | ||
| RCMC1_TS_DEWT_012009.nc | 27-Oct-2024 19:27 | 451206 | ||
| RCMC1_TS_DEWT_012010.nc | 27-Oct-2024 19:28 | 442321 | ||
| RCMC1_TS_DEWT_012011.nc | 27-Oct-2024 19:28 | 456824 | ||
| RCMC1_TS_DEWT_012012.nc | 27-Oct-2024 19:28 | 461898 | ||
| RCMC1_TS_DEWT_012013.nc | 27-Oct-2024 19:28 | 610114 | ||
| RCMC1_TS_DEWT_012014.nc | 27-Oct-2024 19:28 | 458999 | ||
| RCMC1_TS_DEWT_012015.nc | 27-Oct-2024 19:28 | 609753 | ||
| RCMC1_TS_DEWT_012016.nc | 27-Oct-2024 19:28 | 462417 | ||
| RCMC1_TS_DEWT_012017.nc | 27-Oct-2024 19:28 | 609559 | ||
| RCMC1_TS_DEWT_012018.nc | 27-Oct-2024 19:28 | 454648 | ||
| RCMC1_TS_DEWT_012019.nc | 27-Oct-2024 19:28 | 462517 | ||
| RCMC1_TS_DEWT_012020.nc | 27-Oct-2024 19:28 | 461670 | ||
| RCMC1_TS_DEWT_012021.nc | 27-Oct-2024 19:28 | 610892 | ||
| RCMC1_TS_DEWT_012022.nc | 27-Oct-2024 19:29 | 443575 | ||
| RCMC1_TS_DEWT_012023.nc | 27-Oct-2024 19:29 | 609217 | ||
| RCMC1_TS_DEWT_022008.nc | 27-Oct-2024 19:29 | 462488 | ||
| RCMC1_TS_DEWT_022009.nc | 27-Oct-2024 19:29 | 445122 | ||
| RCMC1_TS_DEWT_022010.nc | 27-Oct-2024 19:29 | 455070 | ||
| RCMC1_TS_DEWT_022011.nc | 27-Oct-2024 19:29 | 449737 | ||
| RCMC1_TS_DEWT_022012.nc | 27-Oct-2024 19:29 | 610186 | ||
| RCMC1_TS_DEWT_022013.nc | 27-Oct-2024 19:29 | 446835 | ||
| RCMC1_TS_DEWT_022014.nc | 27-Oct-2024 19:29 | 609790 | ||
| RCMC1_TS_DEWT_022015.nc | 27-Oct-2024 19:29 | 609184 | ||
| RCMC1_TS_DEWT_022016.nc | 27-Oct-2024 19:29 | 448934 | ||
| RCMC1_TS_DEWT_022018.nc | 27-Oct-2024 19:29 | 448610 | ||
| RCMC1_TS_DEWT_022019.nc | 27-Oct-2024 19:29 | 460032 | ||
| RCMC1_TS_DEWT_022020.nc | 27-Oct-2024 19:29 | 612516 | ||
| RCMC1_TS_DEWT_022021.nc | 27-Oct-2024 19:30 | 434970 | ||
| RCMC1_TS_DEWT_022022.nc | 27-Oct-2024 19:30 | 448034 | ||
| RCMC1_TS_DEWT_022023.nc | 27-Oct-2024 19:30 | 609825 | ||
| RCMC1_TS_DEWT_032008.nc | 27-Oct-2024 19:30 | 460833 | ||
| RCMC1_TS_DEWT_032009.nc | 27-Oct-2024 19:30 | 610014 | ||
| RCMC1_TS_DEWT_032010.nc | 27-Oct-2024 19:30 | 461721 | ||
| RCMC1_TS_DEWT_032011.nc | 27-Oct-2024 19:30 | 457832 | ||
| RCMC1_TS_DEWT_032012.nc | 27-Oct-2024 19:30 | 456083 | ||
| RCMC1_TS_DEWT_032013.nc | 27-Oct-2024 19:30 | 461620 | ||
| RCMC1_TS_DEWT_032014.nc | 27-Oct-2024 19:30 | 461005 | ||
| RCMC1_TS_DEWT_032015.nc | 27-Oct-2024 19:30 | 456726 | ||
| RCMC1_TS_DEWT_032016.nc | 27-Oct-2024 19:30 | 639045 | ||
| RCMC1_TS_DEWT_032017.nc | 27-Oct-2024 19:30 | 1121158 | ||
| RCMC1_TS_DEWT_032018.nc | 27-Oct-2024 19:30 | 1018566 | ||
| RCMC1_TS_DEWT_032019.nc | 27-Oct-2024 19:30 | 683005 | ||
| RCMC1_TS_DEWT_032020.nc | 27-Oct-2024 19:31 | 647346 | ||
| RCMC1_TS_DEWT_032021.nc | 27-Oct-2024 19:31 | 995666 | ||
| RCMC1_TS_DEWT_032022.nc | 27-Oct-2024 19:31 | 851318 | ||
| RCMC1_TS_DEWT_032023.nc | 27-Oct-2024 19:31 | 1031336 | ||
| RCMC1_TS_DEWT_042005.nc | 27-Oct-2024 19:31 | 1027355 | ||
| RCMC1_TS_DEWT_042008.nc | 27-Oct-2024 19:31 | 1019377 | ||
| RCMC1_TS_DEWT_042009.nc | 27-Oct-2024 19:31 | 1014995 | ||
| RCMC1_TS_DEWT_042010.nc | 27-Oct-2024 19:31 | 437617 | ||
| RCMC1_TS_DEWT_042011.nc | 27-Oct-2024 19:31 | 4435518 | ||
| RCMC1_TS_DEWT_042012.nc | 27-Oct-2024 19:31 | 667002 | ||
| RCMC1_TS_DEWT_042013.nc | 27-Oct-2024 19:31 | 637456 | ||
| RCMC1_TS_DEWT_042014.nc | 27-Oct-2024 19:31 | 665287 | ||
| RCMC1_TS_DEWT_042015.nc | 27-Oct-2024 19:31 | 1019009 | ||
| RCMC1_TS_DEWT_042016.nc | 27-Oct-2024 19:31 | 987217 | ||
| RCMC1_TS_DEWT_042017.nc | 27-Oct-2024 19:32 | 1015322 | ||
| RCMC1_TS_DEWT_042018.nc | 27-Oct-2024 19:32 | 3730256 | ||
| RCMC1_TS_DEWT_042019.nc | 27-Oct-2024 19:32 | 1009754 | ||
| RCMC1_TS_DEWT_042020.nc | 27-Oct-2024 19:32 | 1113760 | ||
| RCMC1_TS_DEWT_042021.nc | 27-Oct-2024 19:32 | 1020855 | ||
| RCMC1_TS_DEWT_042022.nc | 27-Oct-2024 19:32 | 1121579 | ||
| RCMC1_TS_DEWT_042023.nc | 27-Oct-2024 19:32 | 628034 | ||
| RCMC1_TS_DEWT_052005.nc | 27-Oct-2024 19:32 | 1019252 | ||
| RCMC1_TS_DEWT_052008.nc | 27-Oct-2024 19:32 | 477638 | ||
| RCMC1_TS_DEWT_052009.nc | 27-Oct-2024 19:32 | 983462 | ||
| RCMC1_TS_DEWT_052010.nc | 27-Oct-2024 19:32 | 1013250 | ||
| RCMC1_TS_DEWT_052011.nc | 27-Oct-2024 19:32 | 1032519 | ||
| RCMC1_TS_DEWT_052012.nc | 27-Oct-2024 19:32 | 1273518 | ||
| RCMC1_TS_DEWT_052013.nc | 27-Oct-2024 19:32 | 1025323 | ||
| RCMC1_TS_DEWT_052014.nc | 27-Oct-2024 19:32 | 1023394 | ||
| RCMC1_TS_DEWT_052015.nc | 27-Oct-2024 19:32 | 426278 | ||
| RCMC1_TS_DEWT_052016.nc | 27-Oct-2024 19:32 | 672542 | ||
| RCMC1_TS_DEWT_052017.nc | 27-Oct-2024 19:33 | 989678 | ||
| RCMC1_TS_DEWT_052018.nc | 27-Oct-2024 19:33 | 679105 | ||
| RCMC1_TS_DEWT_052019.nc | 27-Oct-2024 19:33 | 1113814 | ||
| RCMC1_TS_DEWT_052020.nc | 27-Oct-2024 19:33 | 1269679 | ||
| RCMC1_TS_DEWT_052021.nc | 27-Oct-2024 19:33 | 1014070 | ||
| RCMC1_TS_DEWT_052022.nc | 27-Oct-2024 19:33 | 1003065 | ||
| RCMC1_TS_DEWT_052023.nc | 27-Oct-2024 19:33 | 1108592 | ||
| RCMC1_TS_DEWT_062005.nc | 27-Oct-2024 19:33 | 1268980 | ||
| RCMC1_TS_DEWT_062007.nc | 27-Oct-2024 19:33 | 1115723 | ||
| RCMC1_TS_DEWT_062008.nc | 27-Oct-2024 19:33 | 1274065 | ||
| RCMC1_TS_DEWT_062009.nc | 27-Oct-2024 19:33 | 1018973 | ||
| RCMC1_TS_DEWT_062010.nc | 27-Oct-2024 19:33 | 636229 | ||
| RCMC1_TS_DEWT_062011.nc | 27-Oct-2024 19:33 | 657949 | ||
| RCMC1_TS_DEWT_062012.nc | 27-Oct-2024 19:33 | 1115830 | ||
| RCMC1_TS_DEWT_062013.nc | 27-Oct-2024 19:33 | 478583 | ||
| RCMC1_TS_DEWT_062014.nc | 27-Oct-2024 19:34 | 1117926 | ||
| RCMC1_TS_DEWT_062015.nc | 27-Oct-2024 19:34 | 1277871 | ||
| RCMC1_TS_DEWT_062016.nc | 27-Oct-2024 19:34 | 1019295 | ||
| RCMC1_TS_DEWT_062017.nc | 27-Oct-2024 19:34 | 642133 | ||
| RCMC1_TS_DEWT_062018.nc | 27-Oct-2024 19:34 | 679966 | ||
| RCMC1_TS_DEWT_062019.nc | 27-Oct-2024 19:34 | 473901 | ||
| RCMC1_TS_DEWT_062020.nc | 27-Oct-2024 19:34 | 650302 | ||
| RCMC1_TS_DEWT_062021.nc | 27-Oct-2024 19:34 | 460482 | ||
| RCMC1_TS_DEWT_062022.nc | 27-Oct-2024 19:34 | 1031008 | ||
| RCMC1_TS_DEWT_062023.nc | 27-Oct-2024 19:34 | 1270060 | ||
| RCMC1_TS_DEWT_072005.nc | 27-Oct-2024 19:34 | 1018140 | ||
| RCMC1_TS_DEWT_072007.nc | 27-Oct-2024 19:34 | 1018933 | ||
| RCMC1_TS_DEWT_072008.nc | 27-Oct-2024 19:34 | 1020791 | ||
| RCMC1_TS_DEWT_072009.nc | 27-Oct-2024 19:34 | 1029043 | ||
| RCMC1_TS_DEWT_072011.nc | 27-Oct-2024 19:35 | 1119194 | ||
| RCMC1_TS_DEWT_072012.nc | 27-Oct-2024 19:35 | 1269163 | ||
| RCMC1_TS_DEWT_072013.nc | 27-Oct-2024 19:35 | 1023453 | ||
| RCMC1_TS_DEWT_072014.nc | 27-Oct-2024 19:35 | 632627 | ||
| RCMC1_TS_DEWT_072015.nc | 27-Oct-2024 19:35 | 986260 | ||
| RCMC1_TS_DEWT_072016.nc | 27-Oct-2024 19:35 | 1116668 | ||
| RCMC1_TS_DEWT_072017.nc | 27-Oct-2024 19:35 | 1020142 | ||
| RCMC1_TS_DEWT_072018.nc | 27-Oct-2024 19:35 | 999713 | ||
| RCMC1_TS_DEWT_072019.nc | 27-Oct-2024 19:35 | 1020603 | ||
| RCMC1_TS_DEWT_072020.nc | 27-Oct-2024 19:35 | 1112784 | ||
| RCMC1_TS_DEWT_072021.nc | 27-Oct-2024 19:35 | 650270 | ||
| RCMC1_TS_DEWT_072022.nc | 27-Oct-2024 19:36 | 1014693 | ||
| RCMC1_TS_DEWT_072023.nc | 27-Oct-2024 19:36 | 982118 | ||
| RCMC1_TS_DEWT_082005.nc | 27-Oct-2024 19:36 | 1271780 | ||
| RCMC1_TS_DEWT_082007.nc | 27-Oct-2024 19:36 | 1028617 | ||
| RCMC1_TS_DEWT_082008.nc | 27-Oct-2024 19:36 | 998930 | ||
| RCMC1_TS_DEWT_082009.nc | 27-Oct-2024 19:36 | 1022795 | ||
| RCMC1_TS_DEWT_082010.nc | 27-Oct-2024 19:36 | 656815 | ||
| RCMC1_TS_DEWT_082011.nc | 27-Oct-2024 19:36 | 994173 | ||
| RCMC1_TS_DEWT_082012.nc | 27-Oct-2024 19:36 | 676542 | ||
| RCMC1_TS_DEWT_082013.nc | 27-Oct-2024 19:36 | 993889 | ||
| RCMC1_TS_DEWT_082014.nc | 27-Oct-2024 19:36 | 458147 | ||
| RCMC1_TS_DEWT_082015.nc | 27-Oct-2024 19:36 | 649471 | ||
| RCMC1_TS_DEWT_082016.nc | 27-Oct-2024 19:36 | 460320 | ||
| RCMC1_TS_DEWT_082017.nc | 27-Oct-2024 19:36 | 1567123 | ||
| RCMC1_TS_DEWT_082018.nc | 27-Oct-2024 19:36 | 1010473 | ||
| RCMC1_TS_DEWT_082019.nc | 27-Oct-2024 19:36 | 641074 | ||
| RCMC1_TS_DEWT_082020.nc | 27-Oct-2024 19:36 | 1020592 | ||
| RCMC1_TS_DEWT_082021.nc | 27-Oct-2024 19:37 | 673101 | ||
| RCMC1_TS_DEWT_082022.nc | 27-Oct-2024 19:37 | 2519404 | ||
| RCMC1_TS_DEWT_082023.nc | 27-Oct-2024 19:37 | 1038649 | ||
| RCMC1_TS_DEWT_092005.nc | 27-Oct-2024 19:37 | 1022000 | ||
| RCMC1_TS_DEWT_092007.nc | 27-Oct-2024 19:37 | 673711 | ||
| RCMC1_TS_DEWT_092008.nc | 27-Oct-2024 19:37 | 1112036 | ||
| RCMC1_TS_DEWT_092009.nc | 27-Oct-2024 19:37 | 657242 | ||
| RCMC1_TS_DEWT_092010.nc | 27-Oct-2024 19:37 | 1019527 | ||
| RCMC1_TS_DEWT_092011.nc | 27-Oct-2024 19:37 | 1266329 | ||
| RCMC1_TS_DEWT_092012.nc | 27-Oct-2024 19:37 | 627972 | ||
| RCMC1_TS_DEWT_092013.nc | 27-Oct-2024 19:37 | 1118039 | ||
| RCMC1_TS_DEWT_092014.nc | 27-Oct-2024 19:37 | 992042 | ||
| RCMC1_TS_DEWT_092015.nc | 27-Oct-2024 19:37 | 1032692 | ||
| RCMC1_TS_DEWT_092016.nc | 27-Oct-2024 19:37 | 1277143 | ||
| RCMC1_TS_DEWT_092017.nc | 27-Oct-2024 19:37 | 1026261 | ||
| RCMC1_TS_DEWT_092018.nc | 27-Oct-2024 19:38 | 1031859 | ||
| RCMC1_TS_DEWT_092019.nc | 27-Oct-2024 19:38 | 988753 | ||
| RCMC1_TS_DEWT_092020.nc | 27-Oct-2024 19:38 | 637790 | ||
| RCMC1_TS_DEWT_092021.nc | 27-Oct-2024 19:38 | 1272673 | ||
| RCMC1_TS_DEWT_092022.nc | 27-Oct-2024 19:38 | 1014489 | ||
| RCMC1_TS_DEWT_092023.nc | 27-Oct-2024 19:38 | 455731 | ||
| RCMC1_TS_DEWT_102005.nc | 27-Oct-2024 19:38 | 1111286 | ||
| RCMC1_TS_DEWT_102007.nc | 27-Oct-2024 19:38 | 1116575 | ||
| RCMC1_TS_DEWT_102008.nc | 27-Oct-2024 19:38 | 443105 | ||
| RCMC1_TS_DEWT_102009.nc | 27-Oct-2024 19:38 | 686871 | ||
| RCMC1_TS_DEWT_102010.nc | 27-Oct-2024 19:38 | 1276246 | ||
| RCMC1_TS_DEWT_102011.nc | 27-Oct-2024 19:38 | 1023580 | ||
| RCMC1_TS_DEWT_102012.nc | 27-Oct-2024 19:38 | 481460 | ||
| RCMC1_TS_DEWT_102013.nc | 27-Oct-2024 19:38 | 3527163 | ||
| RCMC1_TS_DEWT_102014.nc | 27-Oct-2024 19:38 | 1110623 | ||
| RCMC1_TS_DEWT_102015.nc | 27-Oct-2024 19:38 | 1114603 | ||
| RCMC1_TS_DEWT_102016.nc | 27-Oct-2024 19:38 | 453225 | ||
| RCMC1_TS_DEWT_102017.nc | 27-Oct-2024 19:39 | 1267593 | ||
| RCMC1_TS_DEWT_102018.nc | 27-Oct-2024 19:39 | 1277382 | ||
| RCMC1_TS_DEWT_102019.nc | 27-Oct-2024 19:39 | 1023890 | ||
| RCMC1_TS_DEWT_102020.nc | 27-Oct-2024 19:39 | 1114109 | ||
| RCMC1_TS_DEWT_102021.nc | 27-Oct-2024 19:39 | 5659706 | ||
| RCMC1_TS_DEWT_102022.nc | 27-Oct-2024 19:39 | 1113201 | ||
| RCMC1_TS_DEWT_102023.nc | 27-Oct-2024 19:39 | 1029223 | ||
| RCMC1_TS_DEWT_112007.nc | 27-Oct-2024 19:39 | 442036 | ||
| RCMC1_TS_DEWT_112008.nc | 27-Oct-2024 19:39 | 1108047 | ||
| RCMC1_TS_DEWT_112009.nc | 27-Oct-2024 19:39 | 1270155 | ||
| RCMC1_TS_DEWT_112010.nc | 27-Oct-2024 19:39 | 1017310 | ||
| RCMC1_TS_DEWT_112011.nc | 27-Oct-2024 19:39 | 1110048 | ||
| RCMC1_TS_DEWT_112012.nc | 27-Oct-2024 19:39 | 4855527 | ||
| RCMC1_TS_DEWT_112013.nc | 27-Oct-2024 19:39 | 1114854 | ||
| RCMC1_TS_DEWT_112014.nc | 27-Oct-2024 19:39 | 631003 | ||
| RCMC1_TS_DEWT_112015.nc | 27-Oct-2024 19:40 | 434119 | ||
| RCMC1_TS_DEWT_112016.nc | 27-Oct-2024 19:40 | 1023008 | ||
| RCMC1_TS_DEWT_112017.nc | 27-Oct-2024 19:40 | 1274810 | ||
| RCMC1_TS_DEWT_112018.nc | 27-Oct-2024 19:40 | 1025449 | ||
| RCMC1_TS_DEWT_112019.nc | 27-Oct-2024 19:40 | 1105302 | ||
| RCMC1_TS_DEWT_112020.nc | 27-Oct-2024 19:40 | 5837920 | ||
| RCMC1_TS_DEWT_112021.nc | 27-Oct-2024 19:40 | 1029507 | ||
| RCMC1_TS_DEWT_112022.nc | 27-Oct-2024 19:40 | 661379 | ||
| RCMC1_TS_DEWT_112023.nc | 27-Oct-2024 19:40 | 1118847 | ||
| RCMC1_TS_DEWT_122007.nc | 27-Oct-2024 19:40 | 1036791 | ||
| RCMC1_TS_DEWT_122008.nc | 27-Oct-2024 19:40 | 648909 | ||
| RCMC1_TS_DEWT_122009.nc | 27-Oct-2024 19:40 | 428595 | ||
| RCMC1_TS_DEWT_122010.nc | 27-Oct-2024 19:40 | 1183392 | ||
| RCMC1_TS_DEWT_122011.nc | 27-Oct-2024 19:40 | 5732596 | ||
| RCMC1_TS_DEWT_122012.nc | 27-Oct-2024 19:41 | 633478 | ||
| RCMC1_TS_DEWT_122013.nc | 27-Oct-2024 19:41 | 684779 | ||
| RCMC1_TS_DEWT_122014.nc | 27-Oct-2024 19:41 | 672725 | ||
| RCMC1_TS_DEWT_122015.nc | 27-Oct-2024 19:41 | 655330 | ||
| RCMC1_TS_DEWT_122016.nc | 27-Oct-2024 19:41 | 632990 | ||
| RCMC1_TS_DEWT_122017.nc | 27-Oct-2024 19:41 | 5372532 | ||
| RCMC1_TS_DEWT_122018.nc | 27-Oct-2024 19:41 | 3695793 | ||
| RCMC1_TS_DEWT_122019.nc | 27-Oct-2024 19:41 | 2355927 | ||
| RCMC1_TS_DEWT_122020.nc | 27-Oct-2024 19:41 | 2521042 | ||
| RCMC1_TS_DEWT_122021.nc | 27-Oct-2024 19:41 | 3222672 | ||
| RCMC1_TS_DEWT_122022.nc | 27-Oct-2024 19:41 | 438210 | ||
| RCMC1_TS_DEWT_122023.nc | 27-Oct-2024 19:41 | 1111774 | ||